Prescott, AZ

6:03 PM MST on October 19, 2017 (GMT -0700)
Love

Weather History for KPRC - June, 2013

Change the Weather History Date:

Monday, June 3, 2013

  Actual Average Record
Temperature  
Mean Temperature 73 °F 67 °F  
Max Temperature 88 °F 83 °F 97 °F (1996)
Min Temperature 58 °F 51 °F 37 °F (1971)
Degree Days  
Heating Degree Days 0    
Month to date heating degree days 0  
Since 1 July heating degree days 3911  
Cooling Degree Days 8    
Month to date cooling degree days 25  
Year to date cooling degree days 68  
Growing Degree Days 22 (Base 50)    
Moisture  
Dew Point 26 °F    
Average Humidity 19    
Maximum Humidity 40    
Minimum Humidity 9    
Precipitation  
Precipitation 0.00 in 0.01 in 0.70 in (1986)
Month to date precipitation 0.00 0.03  
Year to date precipitation 2.51 4.57  
Sea Level Pressure  
Sea Level Pressure 29.80 in    
Wind  
Wind Speed 10 mph (South)    
Max Wind Speed 23 mph    
Max Gust Speed 36 mph    
Visibility 10 miles    
Events      
T = Trace of Precipitation, MM = Missing Value Source: NWS Daily Summary

Daily Weather History Graph

Daily Weather History Graph

Search for Another Location

Airport or City:

Trip Planner

Search our weather history database for the weather conditions in past years. The results will help you decide how hot, cold, wet, or windy it might be!

Date:

Astronomy

Jun. 03, 2013 Rise Set
Actual Time 5:17 AM MST 7:38 PM MST
Civil Twilight 4:48 AM MST 8:08 PM MST
Nautical Twilight 4:12 AM MST 8:43 PM MST
Astronomical Twilight 3:33 AM MST 9:23 PM MST
Moon 2:06 AM MST (6/3) 3:22 PM MST (6/3)
Length of Visible Light 15h 19m
Length of Day
14h 21m
Waning Crescent, 21% of the Moon is Illuminated
Jun 3
Waning Crescent
Jun 8
New
Jun 16
First Quarter
Jun 23
Full
Jun 29
Last Quarter

Hourly Weather History & Observations

Time (MST) Temp. Dew Point Humidity Pressure Visibility Wind Dir Wind Speed Gust Speed Precip Events Conditions
12:53 AM 66.9 °F 30.9 °F 26% 29.66 in 10.0 mi SW 8.1 mph - N/A   Clear
1:53 AM 64.0 °F 32.0 °F 30% 29.67 in 10.0 mi SSE 9.2 mph - N/A   Clear
2:53 AM 64.0 °F 34.0 °F 33% 29.68 in 10.0 mi SSW 8.1 mph - N/A   Clear
3:53 AM 57.9 °F 33.1 °F 39% 29.70 in 10.0 mi SSW 5.8 mph - N/A   Clear
4:53 AM 61.0 °F 30.0 °F 31% 29.72 in 10.0 mi SSW 5.8 mph - N/A   Clear
5:53 AM 61.0 °F 30.9 °F 32% 29.73 in 10.0 mi SSW 5.8 mph - N/A   Clear
6:53 AM 69.1 °F 27.0 °F 21% 29.74 in 10.0 mi SE 9.2 mph - N/A   Clear
7:53 AM 73.0 °F 27.0 °F 18% 29.76 in 10.0 mi SE 9.2 mph - N/A   Clear
8:53 AM 77.0 °F 25.0 °F 15% 29.76 in 10.0 mi ESE 9.2 mph - N/A   Clear
9:53 AM 80.1 °F 24.1 °F 13% 29.76 in 10.0 mi ESE 11.5 mph 21.9 mph N/A   Clear
10:53 AM 84.0 °F 23.0 °F 11% 29.75 in 10.0 mi SE 18.4 mph 25.3 mph N/A   Clear
11:53 AM 84.9 °F 23.0 °F 10% 29.75 in 10.0 mi ESE 15.0 mph 28.8 mph N/A   Clear
12:53 PM 87.1 °F 21.0 °F 9% 29.74 in 10.0 mi WSW 12.7 mph 19.6 mph N/A   Clear
1:53 PM 87.1 °F 21.9 °F 9% 29.73 in 10.0 mi South 9.2 mph 21.9 mph N/A   Clear
2:53 PM 87.1 °F 24.1 °F 10% 29.73 in 10.0 mi South 12.7 mph 19.6 mph N/A   Clear
3:53 PM 87.1 °F 23.0 °F 10% 29.74 in 10.0 mi SSW 9.2 mph 16.1 mph N/A   Clear
4:53 PM 86.0 °F 23.0 °F 10% 29.73 in 10.0 mi SW 11.5 mph 23.0 mph N/A   Clear
5:53 PM 84.0 °F 19.9 °F 9% 29.73 in 10.0 mi WSW 16.1 mph 21.9 mph N/A   Clear
6:53 PM - - N/A% 29.99 in - North - - N/A   Unknown
7:53 PM - - N/A% 30.00 in - North - - N/A   Unknown
8:53 PM - - N/A% 30.02 in - North - - N/A   Unknown
9:53 PM - - N/A% 30.03 in - North - - N/A   Unknown
10:53 PM - - N/A% 30.04 in - North - - N/A   Unknown
11:53 PM - - N/A% 30.04 in - North - - N/A   Unknown